Regional Weather Roundup
Issued by NWS Charleston, SC

Current Version | Previous Version | Text Only | Print | Product List | Glossary Off
Versions: 1 2 3 4 5 6 7 8 9 10 11 12 13 14 15 16 17 18 19 20 21 22 23 24 25 26 27 28 29 30 31 32 33 34 35 36 37 38 39 40 41 42 43 44 45 46 47 48 49 50

000
ASUS42 KCHS 021527
RWRCHS

REGIONAL WEATHER ROUNDUP
NATIONAL WEATHER SERVICE CHARLESTON SC
1100 AM EDT TUE JUN 02 2015

NOTE: "FAIR" INDICATES FEW OR NO CLOUDS BELOW 12,000 FEET WITH NO
SIGNIFICANT WEATHER AND/OR OBSTRUCTIONS TO VISIBILITY.

NOT ALL STATIONS ARE QUALITY CONTROLLED BY THE NATIONAL
WEATHER SERVICE. USE DATA WITH CAUTION...ESPECIALLY
DEWPOINT OBSERVATIONS.

SCZ027-030-031-034>040-042>050-021600-
...SOUTHEAST SOUTH CAROLINA...

CITY           SKY/WX    TMP DP  RH WIND       PRES   REMARKS
N CHARLESTON   PTSUNNY   82  67  60 S7        30.03S
WATERFRONT PAR   N/A     81  70  69 CALM      30.01
MOUNT PLEASANT LGT RAIN  82  72  69 S8        30.03S
JOHNS ISLAND   MOSUNNY   81  72  74 CALM      30.03F
PINOPOLIS        N/A     82  72  69 CALM      29.96
MONCKS CORNER  FAIR      84  66  54 SW6       30.03S
SUMMERVILLE    FAIR      82  70  65 CALM      30.04S
BEAUFORT MCAS  MOSUNNY   83  67  58 SW5       30.03S
BEAUFORT ARPT  FAIR      82  70  65 S6        30.02F
HILTON HEAD IS MOSUNNY   82  70  65 SW6       30.04F
WALTERBORO     PTSUNNY   81  66  61 CALM      30.03F
ALLENDALE      FAIR      79  68  69 W3        30.03S

...SOUTHERN MIDLANDS AND PEE DEE...

CITY           SKY/WX    TMP DP  RH WIND       PRES   REMARKS
GEORGETOWN     NOT AVBL
KINGSTREE      NOT AVBL
ORANGEBURG     PTSUNNY   78  67  68 CALM      30.03F
BARNWELL       FAIR      81  68  65 SE3       30.04F
AIKEN          FAIR      75  63  64 SW5       30.07S
MANNING        CLOUDY    79  63  57 W5        30.03S
COLUMBIA       PTSUNNY   80  67  64 N3        30.02F
SUMTER         PTSUNNY   79  65  60 SW6       30.02S
FLORENCE       PTSUNNY   76  69  79 S3        30.04S
MYRTLE BEACH   TSTM      73  64  73 SW7       30.07R
N MYRTLE BEACH LGT RAIN  79  70  74 SW8       30.04S

$$

GAZ063-065-086>088-099>101-113>116-118-119-134>141-150-021600-
...SOUTHEAST GEORGIA...

CITY           SKY/WX    TMP DP  RH WIND       PRES   REMARKS
SAVANNAH ARPT  CLOUDY    79  68  69 W5        30.03F
HUNTER AAF     PTSUNNY   81  70  69 VRB1      30.01S HAZE
FORT STEWART   PTSUNNY   78  69  73 VRB2      30.01F
STATESBORO     PTSUNNY   79  76  90 CALM      30.03F
SYLVANIA       PTSUNNY   80  72  75 NW6       30.04F
CLAXTON        FAIR      79  70  73 CALM      30.03F

...CSRA...CENTRAL AND FAR SOUTHEAST GEORGIA...

CITY           SKY/WX    TMP DP  RH WIND       PRES   REMARKS
THOMSON        PTSUNNY   77  71  80 W3        30.08S
AUGUSTA-BUSH   PTSUNNY   76  67  73 CALM      30.03S
AUGUSTA-DANIEL MOSUNNY   76  67  73 S3        30.04F
SWAINSBORO     FAIR      81  70  69 N3        30.04F
VIDALIA        PTSUNNY   79  68  69 CALM      30.04S
EASTMAN        FAIR      79  71  75 CALM      30.06F
HAZLEHURST     FAIR      79  71  76 CALM      30.03S
ALMA           CLOUDY    77  70  79 NW5       30.03F
WAYCROSS       CLOUDY    79  72  79 CALM      30.03R
JESUP          FAIR      81  73  78 CALM      30.03F
BAXLEY         FAIR      79  72  78 CALM      30.03F
BRUNSWICK      PTSUNNY   81  70  69 CALM      30.03S
SAINT SIMONS   NOT AVBL

$$

SCZ027-028-034-036>038-045-046-048>050-GAZ119-141-021600-
...LAKE AND SUPPLEMENTAL COASTAL OBSERVATIONS...

STATION/POSITION TIME  TEMP    WIND        PRES    WAVE   SWELL
                       AIR SEA DIR/SP/G            HT/PER HT/PER/DIR
                 (UTC) (F)     (DEG/KT/KT) (MB)    (FT/S) (FT/S/D)
UPR LAKE MARION  NOT AVBL
WINYAH BAY       1400   79     250/  3     1016.0S
LAKE MURRAY      1400   76      CALM  /  3 1016.6F
ACE BASIN NERRS  NOT AVBL
FORT PULASKI     1500   81 81  160/  4/  7 1017.3F
SAPELO ISLAND    1500   80     250/  2     1017.0S

$$

ANZ835-935-AMZ111-154-330-350-352-354-370-450-454-472-021600-
...C-MAN AND BUOY OBSERVATIONS...

STATION/POSITION TIME  TEMP    WIND        PRES    WAVE   SWELL
                       AIR SEA DIR/SP/G            HT/PER HT/PER/DIR
                 (UTC) (F)     (DEG/KT/KT) (MB)    (FT/S) (FT/S/D)
BUOY 41004       1450   75 80  170/ 14/ 16 1017.0S   3/ 8   3/ 8
BUOY 41008       1450   78 80  190/  2/  2 1017.1F   2/ 9   2/100/ 9
FOLLY BEACH CMAN 1500   80     190/  7/  9 1017.2F
CAPERS NEARSHORE 1408   78     210/  8/ 10 1017.5R
FRIPP NEARSHORE  1400   80     260/  8/ 10 1016.8R


STATION/POSITION TIME  TEMP    WIND        PRES    WAVE   SWELL
                       AIR SEA DIR/SP/G            HT/PER HT/PER/DIR
                 (UTC) (F)     (DEG/KT/KT) (MB)    (FT/S) (FT/S/D)
5E ST. MARYS GA  1421      81                N/A     2/ 9
FRYING PAN BUOY  1450   78 77  190/  4/  6 1018.0S   3/ 9   3/130/ 9
BUOY 41025       1450   78 81  240/  6/  8 1017.6R   3/ 9   2/ 90/ 9
CAPE LOOKOUT NC  1500   78     200/  9/ 11 1017.2R
BUOY 41002       1450   76 78  210/  2/  4 1018.7R   4/ 8   3/ 80/ 8
BUOY 41010       1420   79 80  140/  6/  8 1017.9R
ST AUGUSTINE FL  1500   76 76  130/  8/  9 1017.7S


$$


USA.gov is the U.S. government's official web portal to all federal, state and local government web resources and services.